Time,TemperatureF,DewpointF,PressureIn,WindDirection,WindDirectionDegrees,WindSpeedMPH,WindSpeedGustMPH,Humidity,HourlyPrecipIn,Conditions,Clouds,dailyrainin,SoftwareType,DateUTC
2013-07-07 22:24:00,74.3,64.7,29.91,SW,225,8.7,8.7,72,0.00,,,0.00,VWS V14.01,2013-07-07 12:24:00,
2013-07-07 22:25:00,74.3,64.7,29.91,SW,225,8.7,8.7,72,0.00,,,0.00,VWS V14.01,2013-07-07 12:25:00,
2013-07-07 22:27:00,74.3,64.7,29.91,SW,225,8.7,8.7,72,0.00,,,0.00,VWS V14.01,2013-07-07 12:27:00,
2013-07-07 22:32:00,74.3,64.7,29.91,SW,225,8.7,8.7,72,0.00,,,0.00,VWS V14.01,2013-07-07 12:32:00,
2013-07-07 22:37:00,74.3,64.7,29.91,SW,225,8.7,8.7,72,0.00,,,0.00,VWS V14.01,2013-07-07 12:37:00,
2013-07-07 22:42:00,74.3,64.7,29.91,South,180,8.7,8.7,72,0.00,,,0.00,VWS V14.01,2013-07-07 12:42:00,
2013-07-07 22:47:00,74.5,64.5,29.91,South,180,8.7,8.7,71,0.00,,,0.00,VWS V14.01,2013-07-07 12:47:00,
2013-07-07 22:52:00,74.3,64.3,29.91,South,180,8.7,8.7,71,0.00,,,0.00,VWS V14.01,2013-07-07 12:52:00,
2013-07-07 22:57:00,74.3,64.7,29.91,South,180,8.7,8.7,72,0.00,,,0.00,VWS V14.01,2013-07-07 12:57:00,
2013-07-07 23:02:00,74.3,64.7,29.91,South,180,8.7,8.7,72,0.00,,,0.00,VWS V14.01,2013-07-07 13:02:00,
2013-07-07 23:07:00,74.3,64.7,29.91,South,180,8.7,8.7,72,0.00,,,0.00,VWS V14.01,2013-07-07 13:07:00,
2013-07-07 23:12:00,74.3,64.7,29.91,South,180,8.7,8.7,72,0.00,,,0.00,VWS V14.01,2013-07-07 13:12:00,
2013-07-07 23:17:00,74.1,64.5,29.91,SE,135,5.8,5.8,72,0.00,,,0.00,VWS V14.01,2013-07-07 13:17:00,
2013-07-07 23:22:00,74.3,64.7,29.91,SE,135,5.8,5.8,72,0.00,,,0.00,VWS V14.01,2013-07-07 13:22:00,
2013-07-07 23:28:00,74.3,64.7,29.91,SSE,158,5.8,5.8,72,0.00,,,0.00,VWS V14.01,2013-07-07 13:28:00,
2013-07-07 23:33:00,74.3,64.7,29.91,SSE,158,5.8,5.8,72,0.00,,,0.00,VWS V14.01,2013-07-07 13:33:00,
2013-07-07 23:38:00,74.3,64.7,29.91,SSE,158,5.8,5.8,72,0.00,,,0.00,VWS V14.01,2013-07-07 13:38:00,
2013-07-07 23:43:00,73.9,65.1,29.91,ESE,112,15.9,15.9,74,0.00,,,0.00,VWS V14.01,2013-07-07 13:43:00,
2013-07-07 23:48:00,73.8,65.3,29.88,SW,225,8.5,8.5,75,0.00,,,0.00,VWS V14.01,2013-07-07 13:48:00,
2013-07-07 23:53:00,73.8,65.3,29.88,SSW,202,5.8,5.8,75,0.00,,,0.00,VWS V14.01,2013-07-07 13:53:00,
2013-07-07 23:58:00,73.8,65.3,29.88,South,180,7.2,7.2,75,0.00,,,0.00,VWS V14.01,2013-07-07 13:58:00,